Rochester/St. Mary's Hospita, MN
on Thursday, December 19, 2013

Thursday
Previous Day Next Day
Daily Summary
 ActualAverage (KRST)Record (KRST)
Temperature
Mean Temperature °F 18°F  
Max Temperature 30°F 26°F 50°F (1890)
Min Temperature 19°F 11°F -33°F (1983)
Degree Days
Heating Degree Days 40 47  
Month to date heating degree days 830  
Since 1 July heating degree days 2502  
Cooling Degree Days 0 0  
Month to date cooling degree days 0  
Year to date cooling degree days 585  
Moisture
Dew Point 15°F   
Average Humidity 76    
Maximum Humidity 85    
Minimum Humidity 71    
Precipitation
Precipitation 0.00 in 0.04 in 0.53 in (1939)
Month to date precipitation 0.84  
Year to date precipitation 32.63  
Snow
Snow 0.00 in 0.40 in 5.40 in (2008)
Month to date snowfall 8.0  
Since 1 July snowfall 14.9  
Snow Depth in   
Wind
Wind Speed 7 mph   
Max Wind Speed 14 mph   
Max Gust Speed 20 mph   
Visibility 10 miles   
Events     

Key: T is trace of precipitation, MM is missing value
Source: NWS Daily Summary
Time(CST)TemperatureDew PointHumidity Pressure Visibility Wind DirectionWind SpeedGust SpeedPrecipitationEvents Conditions
12:13 AM 30.9°F 24.6°F 77% 29.77 in 10.0 miles West 5.8 mph - N/A   Clear
12:33 AM 30.6°F 24.4°F 78% 29.77 in 10.0 miles West 8.1 mph - N/A   Clear
12:53 AM 30.2°F 23.9°F 77% 29.78 in 10.0 miles West 8.1 mph - N/A   Clear
1:13 AM 29.5°F 23.7°F 79% 29.78 in 10.0 miles West 6.9 mph - N/A   Clear
1:33 AM 29.3°F 23.7°F 80% 29.80 in 10.0 miles West 6.9 mph - N/A   Clear
1:53 AM 29.3°F 23.5°F 79% 29.80 in 10.0 miles WNW 8.1 mph - N/A   Clear
2:13 AM 27.5°F 22.8°F 83% 29.81 in 10.0 miles WNW 8.1 mph - N/A   Clear
2:33 AM 26.1°F 22.1°F 85% 29.82 in 10.0 miles NW 5.8 mph - N/A   Clear
2:53 AM 26.6°F 22.5°F 84% 29.84 in 10.0 miles NW 5.8 mph - N/A   Clear
3:13 AM 26.4°F 22.1°F 84% 29.85 in 10.0 miles WNW 5.8 mph - N/A   Clear
3:34 AM 25.2°F 21.0°F 84% 29.85 in 10.0 miles NW 5.8 mph - N/A   Clear
3:53 AM 24.8°F 20.5°F 84% 29.85 in 10.0 miles NW 4.6 mph - N/A   Clear
4:13 AM 23.9°F 19.9°F 85% 29.85 in 10.0 miles NW 6.9 mph - N/A   Clear
4:33 AM 23.4°F 19.4°F 85% 29.85 in 10.0 miles NW 4.6 mph - N/A   Clear
4:53 AM 23.5°F 19.4°F 84% 29.85 in 10.0 miles NNW 3.5 mph - N/A   Clear
5:13 AM 23.0°F 19.0°F 85% 29.86 in 10.0 miles NW 4.6 mph - N/A   Clear
5:33 AM 22.6°F 18.5°F 84% 29.87 in 10.0 miles NW 3.5 mph - N/A   Clear
5:53 AM 22.6°F 18.3°F 83% 29.87 in 10.0 miles NNW 5.8 mph - N/A   Clear
6:13 AM 22.1°F 17.6°F 83% 29.89 in 10.0 miles NNW 3.5 mph - N/A   Clear
6:33 AM 22.1°F 17.1°F 81% 29.90 in 10.0 miles NNW 5.8 mph - N/A   Clear
6:53 AM 21.7°F 16.3°F 80% 29.92 in 10.0 miles North 8.1 mph - N/A   Clear
7:13 AM 21.2°F 15.6°F 79% 29.92 in 10.0 miles North 8.1 mph - N/A   Clear
7:33 AM 20.8°F 14.7°F 77% 29.93 in 10.0 miles North 8.1 mph - N/A   Clear
7:53 AM 20.5°F 14.2°F 77% 29.95 in 10.0 miles North 9.2 mph - N/A   Clear
8:13 AM 20.7°F 14.0°F 75% 29.96 in 10.0 miles North 5.8 mph - N/A   Clear
8:33 AM 19.4°F 13.1°F 76% 29.96 in 10.0 miles North 8.1 mph - N/A   Clear
8:53 AM 19.8°F 12.9°F 75% 29.97 in 10.0 miles North 8.1 mph - N/A   Clear
9:13 AM 19.4°F 12.7°F 75% 29.97 in 10.0 miles North 5.8 mph - N/A   Clear
9:33 AM 19.4°F 12.6°F 75% 29.97 in 10.0 miles NNE 8.1 mph - N/A   Clear
9:53 AM 19.8°F 12.9°F 75% 29.97 in 10.0 miles North 6.9 mph - N/A   Clear
10:13 AM 19.4°F 12.9°F 76% 29.98 in 10.0 miles NNE 13.8 mph 18.4 mph N/A   Clear
10:33 AM 19.8°F 13.1°F 75% 29.98 in 10.0 miles NNE 10.4 mph - N/A   Clear
10:53 AM 19.9°F 13.1°F 75% 29.97 in 10.0 miles NNE 8.1 mph 16.1 mph N/A   Clear
11:13 AM 19.6°F 12.4°F 74% 29.97 in 10.0 miles NNE 10.4 mph 17.3 mph N/A   Clear
11:33 AM 19.4°F 12.4°F 74% 29.96 in 10.0 miles North 10.4 mph 17.3 mph N/A   Scattered Clouds
11:53 AM 19.9°F 12.4°F 72% 29.95 in 10.0 miles NNE 12.7 mph 18.4 mph N/A   Scattered Clouds
12:13 PM 19.6°F 12.2°F 73% 29.95 in 10.0 miles NNE 6.9 mph 18.4 mph N/A   Scattered Clouds
12:33 PM 19.4°F 12.2°F 74% 29.94 in 10.0 miles NNE 9.2 mph 16.1 mph N/A   Mostly Cloudy
12:53 PM 19.4°F 12.2°F 74% 29.93 in 10.0 miles NNE 10.4 mph 17.3 mph N/A   Mostly Cloudy
1:13 PM 19.2°F 12.0°F 74% 29.92 in 10.0 miles NNE 10.4 mph 17.3 mph N/A   Mostly Cloudy
1:33 PM 19.4°F 12.4°F 74% 29.92 in 5.0 miles NNE 6.9 mph 17.3 mph N/A   Mostly Cloudy
1:53 PM 19.9°F 12.6°F 73% 29.91 in 10.0 miles NNE 12.7 mph 17.3 mph N/A   Scattered Clouds
2:13 PM 20.3°F 12.7°F 73% 29.91 in 10.0 miles NE 13.8 mph 19.6 mph N/A   Scattered Clouds
2:33 PM 20.7°F 12.9°F 72% 29.91 in 10.0 miles NNE 12.7 mph 19.6 mph N/A   Scattered Clouds
2:53 PM 20.7°F 12.7°F 71% 29.91 in 10.0 miles NNE 11.5 mph - N/A   Scattered Clouds
3:13 PM 20.7°F 12.7°F 71% 29.92 in 10.0 miles NNE 13.8 mph 17.3 mph N/A   Mostly Cloudy
3:33 PM 20.8°F 13.1°F 72% 29.92 in 10.0 miles NE 9.2 mph 17.3 mph N/A   Mostly Cloudy
3:53 PM 20.8°F 13.3°F 73% 29.93 in 10.0 miles NE 13.8 mph 18.4 mph N/A   Scattered Clouds
4:13 PM 21.2°F 13.8°F 73% 29.94 in 10.0 miles NNE 4.6 mph 16.1 mph N/A   Mostly Cloudy
4:33 PM 21.0°F 13.3°F 72% 29.94 in 10.0 miles NE 5.8 mph - N/A   Overcast
4:53 PM 20.7°F 13.1°F 73% 29.94 in 10.0 miles NNE 6.9 mph - N/A   Mostly Cloudy
5:13 PM 20.8°F 13.6°F 74% 29.94 in 10.0 miles NNE 5.8 mph - N/A   Overcast
5:33 PM 20.7°F 13.3°F 73% 29.92 in 10.0 miles NNE 6.9 mph - N/A   Overcast
5:53 PM 21.0°F 13.6°F 73% 29.93 in 10.0 miles NNE 6.9 mph - N/A   Overcast
6:13 PM 20.7°F 13.3°F 73% 29.92 in 10.0 miles NNE 9.2 mph - N/A   Overcast
6:33 PM 20.8°F 13.5°F 73% 29.93 in 10.0 miles North 6.9 mph - N/A   Overcast
6:53 PM 20.7°F 12.9°F 72% 29.93 in 10.0 miles NNE 6.9 mph - N/A   Overcast
7:13 PM 20.8°F 13.1°F 72% 29.92 in 10.0 miles NNE 8.1 mph - N/A   Overcast
7:33 PM 20.8°F 13.1°F 72% 29.92 in 10.0 miles NNE 4.6 mph - N/A   Overcast
7:53 PM 21.0°F 13.1°F 71% 29.92 in 10.0 miles NNE 6.9 mph - N/A   Overcast
8:13 PM 20.8°F 13.3°F 73% 29.92 in 10.0 miles North 8.1 mph - N/A   Overcast
8:33 PM 20.8°F 13.3°F 73% 29.92 in 10.0 miles NNE 8.1 mph - N/A   Overcast
8:53 PM 21.0°F 13.5°F 73% 29.92 in 10.0 miles North 6.9 mph - N/A   Overcast
9:13 PM 20.8°F 13.3°F 73% 29.92 in 10.0 miles North 6.9 mph - N/A   Overcast
9:33 PM 20.8°F 13.5°F 73% 29.93 in 10.0 miles North 9.2 mph - N/A   Overcast
9:53 PM 20.7°F 13.1°F 73% 29.92 in 10.0 miles North 10.4 mph 16.1 mph N/A   Overcast
10:13 PM 20.5°F 13.5°F 74% 29.91 in 10.0 miles NNE 9.2 mph 18.4 mph N/A   Overcast
10:33 PM 20.7°F 13.8°F 75% 29.92 in 10.0 miles NNE 6.9 mph 16.1 mph N/A   Overcast
10:53 PM 20.1°F 14.0°F 77% 29.92 in 10.0 miles NNE 8.1 mph 18.4 mph N/A   Overcast
11:13 PM 20.1°F 14.7°F 80% 29.92 in 10.0 miles NNE 6.9 mph - N/A   Overcast
11:33 PM 20.3°F 14.7°F 79% 29.93 in 10.0 miles NNE 10.4 mph - N/A   Overcast
11:53 PM 20.3°F 14.9°F 80% 29.94 in 10.0 miles NNE 11.5 mph - N/A   Overcast
Astronomy
Sunrise:07:40 AM (CST) Moon Rise:07:04 PM (CST)12/19
Sunset:04:33 PM (CST) Moon Set:08:55 AM (CST)12/19
Moon Phase
Dec. 19 Dec. 25 Jan. 01 Jan. 08 Jan. 16

Copyright © 2016 The Weather Underground, Inc.